[[{"header":{"parameterUnit":"m.s-1","parameterCategory":1,"la1":30.2991,"la2":30.254,"lo1":-89.0895,"lo2":-89.0444,"dy":0.0017,"dx":0.0017,"nx":28,"ny":28,"refTime":"2023-03-20T15:00:00:Z","depth":0,"parameterNumber":2,"parameterNumberName":"U-component_of_WINDS"},"data":[0,0,0,0,0,0,0,0,0,0,0,0,0,0,0,0,0,0,0,0,0,0,0,0,0,0,0,0,0,0,0,0,0,0,0,0,0,0,0,0,0,0,0,0,0,0,0,0,0,0,0,0,0,0,0,0,0,0,-3.6214,-3.6215,0,-3.6329,-3.633,-3.6331,-3.6291,-3.6288,-3.6286,-3.6283,-3.6399,-3.6404,-3.641,0,0,0,0,0,0,0,0,0,0,0,0,0,-3.5957,-3.5962,-3.6214,-3.6215,-3.6217,-3.6328,-3.633,-3.6331,-3.6291,-3.6288,-3.6285,-3.6282,-3.6397,-3.6404,-3.641,0,0,0,0,0,0,0,0,0,0,0,0,0,-3.607,-3.5964,-3.6213,-3.621,-3.6211,-3.6328,-3.633,-3.6332,-3.6292,-3.6288,-3.6284,-3.6281,-3.6395,-3.6403,-3.6411,-3.6538,0,0,-3.6436,-3.644,0,0,0,0,0,0,0,0,-3.6064,-3.6079,-3.6209,-3.6211,-3.6212,-3.6292,-3.6282,-3.6401,-3.6293,-3.6261,-3.6283,-3.6279,-3.6366,-3.6376,-3.6406,-3.6543,-3.6548,-3.6437,-3.6442,-3.6445,-3.6447,0,0,0,0,0,0,0,-3.6056,-3.6074,-3.6259,-3.6211,-3.6213,-3.6202,-3.6214,-3.6304,-3.6334,-3.6264,-3.6261,-3.6275,-3.6366,-3.6399,-3.6409,-3.655,-3.6436,-3.6444,-3.6449,-3.6452,-3.6793,-3.6797,0,0,0,0,0,0,-3.6048,-3.6068,-3.6255,-3.6262,-3.6127,-3.621,-3.6223,-3.627,-3.6333,-3.6338,-3.6278,-3.6273,-3.6386,-3.6399,-3.6413,-3.6562,-3.6445,-3.6453,-3.6457,-3.6789,-3.6794,-3.6799,0,0,0,0,0,0,-3.6042,-3.6065,-3.6251,-3.6165,-3.6187,-3.6218,-3.6271,-3.6274,-3.6306,-3.6344,-3.6348,-3.6306,-3.6384,-3.6401,-3.6506,-3.6566,-3.6456,-3.6464,-3.6784,-3.6791,-3.6797,-3.6865,0,0,0,0,0,0,-3.6035,-3.6063,-3.6112,-3.6166,-3.6192,-3.6344,-3.6275,-3.6279,-3.6321,-3.6315,-3.6371,-3.6377,-3.6382,-3.6494,-3.6515,-3.6575,-3.647,-3.6779,-3.6787,-3.6795,-3.6857,-3.6873,-3.6886,0,0,0,0,0,-3.6026,-3.6127,-3.6115,-3.6138,-3.6254,-3.6347,-3.6362,-3.6367,-3.6326,-3.6374,-3.6398,-3.6375,-3.6557,-3.6506,-3.6528,-3.6592,-3.6775,-3.6785,-3.6794,-3.6851,-3.687,-3.6885,0,0,0,0,0,0,-3.6079,-3.6134,-3.6121,-3.6242,-3.629,-3.634,-3.6402,-3.6387,-3.6447,-3.6439,-3.6442,-3.6455,-3.6563,-3.6588,-3.653,-3.6717,-3.666,-3.6674,-3.6695,-3.6714,-3.6728,-3.6718,-3.6477,0,0,0,0,0,-3.6105,-3.6176,-3.622,-3.6323,-3.6348,-3.6371,-3.6412,-3.6411,-3.6461,-3.6481,-3.6512,-3.6561,-3.6628,-3.6673,-3.6738,-3.6862,-3.6872,-3.6917,-3.6931,-3.6943,-3.6954,-3.7019,-3.7039,-3.683,-3.683,-3.683,0,0,-3.6158,-3.6197,-3.6242,-3.6334,-3.6371,-3.6444,-3.6388,-3.6468,-3.6521,-3.6493,-3.6593,-3.6618,-3.6672,-3.6787,-3.6839,-3.6812,-3.7014,-3.6955,-3.6964,-3.6969,-3.7031,-3.7051,-3.7068,-3.6836,-3.6835,-3.6834,0,0,-3.6292,-3.633,-3.6419,-3.6457,-3.6514,-3.6529,-3.655,-3.6603,-3.6618,-3.672,-3.6699,-3.6763,-3.688,-3.6919,-3.6954,-3.7103,-3.7082,-3.7124,-3.7197,-3.7261,-3.7277,-3.7291,-3.7342,-3.736,-3.7136,-3.7136,-3.7136,0,-3.6351,-3.6461,-3.6466,-3.6547,-3.6587,-3.6566,-3.6654,-3.6691,-3.6766,-3.6794,-3.6763,-3.6909,-3.6944,-3.7066,-3.7102,-3.7133,-3.7155,-3.7116,-3.7274,-3.7289,-3.7303,-3.735,-3.737,-3.714,-3.714,-3.714,-3.7139,0,-3.6529,-3.6605,-3.667,-3.6743,-3.6791,-3.6875,-3.6892,-3.694,-3.6936,-3.6954,-3.7056,-3.7098,-3.717,-3.72,-3.7197,-3.7321,-3.7302,-3.7273,-3.7215,-3.7327,-3.7372,-3.739,-3.7147,-3.7145,-3.7144,-3.7143,0,0,-3.6697,-3.6773,-3.6796,-3.6828,-3.6889,-3.6948,-3.7031,-3.7102,-3.7141,-3.7195,-3.7263,-3.7363,-3.7336,-3.7376,-3.7377,-3.7433,-3.7545,-3.7397,-3.7398,-3.742,-3.7682,-3.7701,-3.7722,-3.7533,-3.7537,-3.754,-3.7676,0,-3.6834,-3.698,-3.6987,-3.712,-3.7189,-3.717,-3.7242,-3.7287,-3.7306,-3.7366,-3.7387,-3.7457,-3.7418,-3.7441,-3.7496,-3.752,-3.7597,-3.7511,-3.7595,-3.7597,-3.7578,-3.7746,-3.7767,-3.7894,-3.7694,-3.7697,-3.7699,0,-3.7013,-3.7071,-3.721,-3.726,-3.7289,-3.7354,-3.7418,-3.7478,-3.7528,-3.7538,-3.7582,-3.7576,-3.7659,-3.7601,-3.7716,-3.7657,-3.7692,-3.7709,-3.7714,-3.7719,-3.7653,-3.7753,-3.7934,-3.7952,-3.7728,-3.7726,-3.7723,0,-3.7117,-3.7231,-3.7328,-3.7357,-3.7419,-3.7464,-3.7492,-3.7539,-3.758,-3.7637,-3.7663,-3.7729,-3.7764,-3.7815,-3.7826,-3.7783,-3.7939,-3.7883,-3.7948,-3.7947,-3.7979,-3.7976,-3.8165,-3.8007,-3.8007,-3.8006,-3.8006,0,-3.7267,-3.7352,-3.7376,-3.7435,-3.753,-3.7537,-3.763,-3.7655,-3.7697,-3.7759,-3.7748,-3.7807,-3.7819,-3.7881,-3.789,-3.7982,-3.7999,-3.8007,-3.8008,-3.8006,-3.8005,-3.8027,-3.8017,-3.8012,-3.801,-3.8009,-3.8009,0,-3.7399,-3.7419,-3.7523,-3.7573,-3.7588,-3.7655,-3.7697,-3.7754,-3.7772,-3.7851,-3.7871,-3.7899,-3.797,-3.7987,-3.8073,-3.8079,-3.8186,-3.818,-3.8169,-3.8167,-3.823,-3.8223,-3.8437,-3.8465,-3.8292,-3.8294,-3.8295,0,-3.7492,-3.7557,-3.7614,-3.7655,-3.7685,-3.7753,-3.7795,-3.7805,-3.7849,-3.7911,-3.796,-3.803,-3.8087,-3.8202,-3.823,-3.8295,-3.8288,-3.8359,-3.8297,-3.8293,-3.8285,-3.828,-3.8285,-3.8369,-3.8371,-3.8373,-3.8374,0,-3.7653,-3.7659,-3.7721,-3.7786,-3.7837,-3.7889,-3.7938,-3.7972,-3.7989,-3.8039,-3.8113,-3.8157,-3.8244,-3.8313,-3.8378,-3.8406,-3.8392,-3.8394,-3.8411,-3.8409,-3.8398,-3.8401,-3.8197,-3.8388,-3.8386,-3.8385,-3.8385,-3.8384,-3.7766,-3.7822,-3.787,-3.7939,-3.7977,-3.8023,-3.8078,-3.8103,-3.8165,-3.8236,-3.8239,-3.8318,-3.8366,-3.8452,-3.8484,-3.8545,-3.8523,-3.855,-3.8556,-3.8561,-3.8565,-3.8391,-3.8557,-3.8557,-3.8557,-3.8556,-3.8556,0,-3.7924,-3.7954,-3.8018,-3.8086,-3.814,-3.8124,-3.8178,-3.8223,-3.8293,-3.8339,-3.8395,-3.8478,-3.8546,-3.8579,-3.8645,-3.8688,-3.8683,-3.8704,-3.87,-3.8706,-3.8583,-3.8559,-3.8707,-3.8707,-3.8707,-3.8707,-3.8707,-3.8707,-3.8012,-3.8105,-3.8117,-3.8228,-3.8258,-3.8335,-3.8367,-3.8409,-3.8445,-3.8539,-3.8595,-3.8616,-3.8657,-3.8726,-3.8786,-3.8794,-3.8818,-3.8842,-3.8846,-3.873,-3.8715,-3.87,-3.8677,-3.8848,-3.8848,-3.8964,-3.8965,-3.8966]},{"header":{"parameterUnit":"m.s-1","parameterCategory":1,"la1":30.2991,"la2":30.254,"lo1":-89.0895,"lo2":-89.0444,"dy":0.0017,"dx":0.0017,"nx":28,"ny":28,"refTime":"2023-03-20T15:00:00:Z","depth":0,"parameterNumber":3,"parameterNumberName":"V-component_of_WINDS"},"data":[0,0,0,0,0,0,0,0,0,0,0,0,0,0,0,0,0,0,0,0,0,0,0,0,0,0,0,0,0,0,0,0,0,0,0,0,0,0,0,0,0,0,0,0,0,0,0,0,0,0,0,0,0,0,0,0,0,0,-1.0133,-1.0133,0,-1.0211,-1.0212,-1.0212,-1.0253,-1.0253,-1.0253,-1.0253,-1.0333,-1.0335,-1.0337,0,0,0,0,0,0,0,0,0,0,0,0,0,-1.0018,-1.002,-1.0133,-1.0134,-1.0135,-1.021,-1.0212,-1.0213,-1.0253,-1.0253,-1.0253,-1.0253,-1.0332,-1.0335,-1.0337,0,0,0,0,0,0,0,0,0,0,0,0,0,-1.0079,-1.002,-1.0132,-1.0164,-1.0167,-1.021,-1.0212,-1.0213,-1.0253,-1.0253,-1.0253,-1.0253,-1.0332,-1.0335,-1.0338,-1.0356,0,0,-1.0347,-1.0349,0,0,0,0,0,0,0,0,-1.0076,-1.0083,-1.0158,-1.0162,-1.0166,-1.0222,-1.0201,-1.0261,-1.0253,-1.022,-1.0253,-1.0253,-1.0296,-1.0302,-1.0317,-1.036,-1.0363,-1.0348,-1.0349,-1.0351,-1.0352,0,0,0,0,0,0,0,-1.0071,-1.008,-1.0163,-1.0159,-1.0164,-1.0174,-1.0182,-1.0212,-1.0257,-1.0223,-1.0226,-1.0235,-1.0298,-1.0313,-1.0319,-1.0364,-1.0347,-1.035,-1.0352,-1.0353,-1.0426,-1.0426,0,0,0,0,0,0,-1.0062,-1.0076,-1.0161,-1.0166,-1.012,-1.0176,-1.0185,-1.0204,-1.0257,-1.0265,-1.0235,-1.0236,-1.0308,-1.0315,-1.0322,-1.0346,-1.0351,-1.0354,-1.0356,-1.0426,-1.0426,-1.0426,0,0,0,0,0,0,-1.0059,-1.0069,-1.0158,-1.0122,-1.0134,-1.0178,-1.0198,-1.0205,-1.0221,-1.0265,-1.0274,-1.0242,-1.0308,-1.0317,-1.0347,-1.035,-1.0355,-1.0358,-1.0426,-1.0426,-1.0426,-1.0395,0,0,0,0,0,0,-1.0056,-1.0068,-1.0075,-1.0122,-1.0136,-1.0182,-1.0198,-1.0207,-1.0226,-1.0229,-1.0275,-1.0282,-1.0309,-1.0342,-1.035,-1.0354,-1.036,-1.0425,-1.0426,-1.0426,-1.0396,-1.0394,-1.0393,0,0,0,0,0,-1.0052,-1.0064,-1.0076,-1.0086,-1.0146,-1.0182,-1.019,-1.022,-1.0226,-1.0234,-1.0262,-1.0281,-1.0348,-1.0345,-1.0354,-1.0359,-1.0425,-1.0426,-1.0426,-1.0397,-1.0395,-1.0393,0,0,0,0,0,0,-1.0017,-1.0071,-1.0084,-1.0112,-1.0142,-1.0188,-1.0199,-1.0217,-1.0246,-1.0248,-1.0285,-1.0295,-1.0321,-1.0343,-1.0338,-1.0379,-1.0389,-1.039,-1.0364,-1.0362,-1.036,-1.0354,-1.0363,0,0,0,0,0,-1.0012,-1.0037,-1.0083,-1.0103,-1.0117,-1.0155,-1.0172,-1.0193,-1.0226,-1.0239,-1.027,-1.0301,-1.0329,-1.0347,-1.0375,-1.04,-1.041,-1.0408,-1.0406,-1.0404,-1.0406,-1.042,-1.0419,-1.0426,-1.0426,-1.0426,0,0,-1.0004,-1.0036,-1.0049,-1.0096,-1.0122,-1.0147,-1.0166,-1.0191,-1.021,-1.0243,-1.0272,-1.0296,-1.0333,-1.036,-1.0374,-1.038,-1.0406,-1.0404,-1.0403,-1.0405,-1.042,-1.0419,-1.0419,-1.0426,-1.0426,-1.0426,0,0,-1.0,-1.0027,-1.0046,-1.0072,-1.011,-1.0136,-1.014,-1.0184,-1.0201,-1.0231,-1.0256,-1.0279,-1.0327,-1.0352,-1.0371,-1.0376,-1.0394,-1.0384,-1.0375,-1.0389,-1.0388,-1.0388,-1.039,-1.039,-1.0386,-1.0385,-1.0385,0,-0.9984,-1.0022,-1.0054,-1.0078,-1.0098,-1.0128,-1.0148,-1.0171,-1.0217,-1.023,-1.0236,-1.0296,-1.0323,-1.0357,-1.0358,-1.0372,-1.0379,-1.0379,-1.0386,-1.0386,-1.0386,-1.0388,-1.0389,-1.0384,-1.0384,-1.0384,-1.0384,0,-1.0,-1.0026,-1.0037,-1.008,-1.0102,-1.0123,-1.0158,-1.0176,-1.0195,-1.0219,-1.025,-1.0283,-1.0319,-1.0328,-1.0347,-1.0364,-1.0367,-1.0379,-1.0389,-1.0383,-1.0386,-1.0387,-1.0382,-1.0382,-1.0383,-1.0383,0,0,-0.9978,-1.0038,-1.0041,-1.0061,-1.0106,-1.0126,-1.0149,-1.0184,-1.0198,-1.0228,-1.0248,-1.0288,-1.0299,-1.032,-1.0342,-1.0354,-1.0356,-1.0365,-1.0366,-1.0362,-1.0377,-1.0367,-1.0368,-1.0368,-1.0368,-1.0368,-1.0373,0,-0.998,-1.0022,-1.0052,-1.0083,-1.0107,-1.0136,-1.0156,-1.0185,-1.0208,-1.0232,-1.0258,-1.0286,-1.0298,-1.0312,-1.0325,-1.0353,-1.0359,-1.0353,-1.0387,-1.0388,-1.0377,-1.0369,-1.036,-1.0363,-1.0375,-1.0375,-1.0375,0,-0.9989,-1.0018,-1.0051,-1.0093,-1.0104,-1.0121,-1.0155,-1.0177,-1.0211,-1.0227,-1.0251,-1.0273,-1.0299,-1.0306,-1.0342,-1.0337,-1.0352,-1.0368,-1.0369,-1.0373,-1.0381,-1.0373,-1.0364,-1.0365,-1.0377,-1.0377,-1.0377,0,-0.9969,-1.0016,-1.0042,-1.0058,-1.0107,-1.0119,-1.014,-1.0174,-1.0192,-1.0222,-1.0234,-1.0266,-1.0284,-1.0308,-1.0338,-1.0341,-1.0371,-1.0381,-1.0385,-1.0384,-1.039,-1.0389,-1.0383,-1.04,-1.04,-1.04,-1.04,0,-0.9969,-0.9988,-1.0034,-1.0049,-1.0072,-1.0105,-1.0126,-1.0149,-1.0179,-1.02,-1.0227,-1.0246,-1.0285,-1.0309,-1.0333,-1.0358,-1.0366,-1.038,-1.0386,-1.0378,-1.0376,-1.0389,-1.0389,-1.04,-1.04,-1.04,-1.04,0,-0.995,-0.9981,-1.0011,-1.0055,-1.0067,-1.0081,-1.0118,-1.0135,-1.016,-1.0186,-1.0194,-1.0233,-1.0262,-1.0295,-1.0335,-1.0351,-1.0375,-1.0384,-1.0363,-1.0367,-1.0369,-1.0368,-1.0371,-1.0373,-1.0388,-1.0388,-1.0388,0,-0.9948,-0.9963,-1.0008,-1.0024,-1.0044,-1.0069,-1.0088,-1.0121,-1.014,-1.0179,-1.0191,-1.0222,-1.0249,-1.0295,-1.0327,-1.0358,-1.0368,-1.0367,-1.0373,-1.0363,-1.0368,-1.0366,-1.0368,-1.0365,-1.0364,-1.0364,-1.0364,0,-0.994,-0.9955,-0.9981,-1.0013,-1.0035,-1.0061,-1.0089,-1.01,-1.0139,-1.0159,-1.0189,-1.021,-1.0251,-1.0281,-1.0316,-1.0338,-1.0357,-1.0362,-1.0364,-1.0356,-1.0343,-1.035,-1.0359,-1.0362,-1.0362,-1.0362,-1.0362,-1.0362,-0.993,-0.9945,-0.9978,-1.0007,-1.0031,-1.0056,-1.0073,-1.01,-1.0126,-1.0161,-1.0179,-1.0209,-1.0242,-1.0291,-1.0312,-1.0336,-1.0342,-1.0346,-1.0347,-1.0347,-1.0345,-1.0339,-1.0343,-1.0343,-1.0343,-1.0343,-1.0343,0,-0.9924,-0.9947,-0.9973,-1.001,-1.0032,-1.0048,-1.0079,-1.0097,-1.0123,-1.0152,-1.0177,-1.0212,-1.0242,-1.0276,-1.0308,-1.032,-1.033,-1.0328,-1.0327,-1.0332,-1.0338,-1.0332,-1.0319,-1.0319,-1.0319,-1.0319,-1.0319,-1.0319,-0.9923,-0.9949,-0.9967,-1.0005,-1.0028,-1.0057,-1.0074,-1.0097,-1.0121,-1.0158,-1.0182,-1.0204,-1.0235,-1.027,-1.0298,-1.0307,-1.0317,-1.0312,-1.0324,-1.0329,-1.0331,-1.0333,-1.0328,-1.0314,-1.0314,-1.0316,-1.0316,-1.0316]}]]